Regional Weather Roundup
Issued by NWS Grand Forks, ND

Home | Current Version | Previous Version | Graphics & Text | Print | Product List | Glossary On
Versions: 1 2 3 4 5 6 7 8 9 10 11 12 13 14 15 16 17 18 19 20 21 22 23 24 25 26 27 28 29 30 31 32 33 34 35 36 37 38 39 40 41 42 43 44 45 46 47 48 49 50
000
ASUS43 KFGF 190931
RWRFGF
PRAIRIE TO PINES  WEATHER ROUNDUP
NATIONAL WEATHER SERVICE EASTERN NORTH DAKOTA/GRAND FORKS ND
400 AM CDT THU OCT 19 2017

 **SATELLITE DATA USED TO AUGMENT SKY COVER AT AUTOMATED STATIONS**
 *****  WEATHER ACROSS EASTERN NORTH DAKOTA  *****

CITY           SKY/WX    TMP DP  RH WIND       PRES   REMARKS
GRAND FORKS    FAIR      35  26  69 SW6       29.90F
GRAND FRKS AFB FAIR      37  25  62 SW8       29.90S
DEVILS LAKE    FAIR      42  30  62 SE5       29.88F
FARGO          FAIR      39  28  64 S8        29.94F
WAHPETON ARPT  NOT AVBL
$$

 ***** WEATHER ACROSS CENTRAL AND WESTERN NORTH DAKOTA  *****

CITY           SKY/WX    TMP DP  RH WIND       PRES   REMARKS
BISMARCK       FAIR      40  28  62 E7        29.86F
MINOT          FAIR      37  29  72 SE6       29.78F
JAMESTOWN      FAIR      36  27  69 S5        29.90F
MINOT AFB      FAIR      35  27  72 S8        29.77F
GARRISON         N/A     36  30  79 CALM      29.82F
WILLISTON      FAIR      45  28  51 S7        29.75F
DICKINSON      FAIR      42  26  53 S10       29.79F
HETTINGER      FAIR      33  24  69 CALM      29.85F
$$

 *****  OTHER AIRPORT OBSERVATIONS IN OUR AREA  *****

CITY           SKY/WX    TMP DP  RH WIND       PRES   REMARKS
WALHALLA       FAIR     N/A N/A N/A SW7       29.86S
GRAFTON AIRPOR FAIR      37  28  70 W7        29.90F
VALLEY CITY AR FAIR      32  30  93 S8        29.93F WCI  25
CANDO          FAIR      30  25  80 S8        29.87F WCI  23
CAVALIER APRT  FAIR      41  23  48 SW7       29.87S
GWINNER        SUNNY     39  30  70 SW7       29.93F
ROLLA          FLURRIES  34  21  60 SW7       29.84F
 ***** THE ABOVE OBSERVATIONS ARE NON NWS ARE NOT QUALITY
       CONTROLLED AND MAY MIS-REPORT RAIN FOR SNOW...
$$

  *****  WEATHER ACROSS NORTHERN MINNESOTA  *****

CITY           SKY/WX    TMP DP  RH WIND       PRES   REMARKS
FLAG ISLAND    FAIR      45  19  36 W12       29.80R
WARROAD        FAIR      39  23  52 SW9       29.85R
ROSEAU         FAIR      41  25  52 SW10      29.86R
HALLOCK        FAIR      34  18  51 S3        29.88R
THF RVR FALLS  FAIR      39  23  52 SW8       29.92S
BAUDETTE       FAIR      45  18  34 W13       29.84R
WASKISH        FAIR      46  34  61 W15G22    29.88S
CROOKSTON      FAIR      36  25  64 S8        29.92F
STEPHEN NDAWN    N/A     37  25  60 SW6         N/A
GREENBUSH NDAW   N/A     39  25  56 SW10        N/A
$$
  *****  WEATHER ACROSS CENTRAL AND WEST MINNESOTA  *****

CITY           SKY/WX    TMP DP  RH WIND       PRES   REMARKS
FOSSTON        FAIR      30  19  64 S5        29.93F
BEMIDJI        FAIR      40  24  52 SW6       29.93R
PARK RAPIDS    FAIR      37  26  64 SW5       29.95S
ELBOW LAKE     FAIR      35  32  88 CALM      29.98F
WADENA         FAIR      37  28  70 SW3       29.97S
DETROIT LAKES  FAIR      43  30  61 S3        29.96F
MOORHEAD       FAIR      37  28  70 SE3       29.95F
FERGUS FALLS   FAIR      41  30  65 SE6       29.98F
MORRIS MN      FAIR      37  32  81 S5        29.98S
STAPLES        FAIR      39  27  60 W5        29.97F
$$
  *****  WEATHER ELSEWHERE ACROSS MINNESOTA  *****

CITY           SKY/WX    TMP DP  RH WIND       PRES   REMARKS
DULUTH         FAIR      43  24  47 W14       29.91R
INTRNTL FALLS  FAIR      42  18  37 SW9       29.82R
ELY            FAIR      45  19  36 W10       29.84R
CLOQUET        FAIR      45  21  39 W6        29.94R
WHEATON        FAIR      41  30  65 SE6       29.99S
BRAINERD       FAIR      41  27  57 SW9       29.98S
HIBBING        FAIR      42  23  46 W6        29.90R
ALEXANDRIA     NOT AVBL
SAINT CLOUD    FAIR      39  32  76 CALM      30.01S
MINNEAPOLIS    FAIR      47  33  58 CALM      30.03S
$$

  *****  WEATHER ACROSS SOUTH DAKOTA  *****

CITY           SKY/WX    TMP DP  RH WIND       PRES   REMARKS
SIOUX FALLS    FAIR      41  37  86 CALM      30.04F
BROOKINGS      FAIR      40  31  70 CALM      30.02F
WATERTOWN      FAIR      38  32  79 SE6       29.99F
HURON          FAIR      40  31  70 S5        29.99F
SISSETON         N/A     50  28  42 S3        29.95F
ABERDEEN       FAIR      35  30  82 S8        29.96F
MITCHELL       FAIR      50  28  42 S9        30.01F
PIERRE         FAIR      42  32  67 SE10      29.92F
MOBRIDGE       FAIR      52  36  54 S21       29.85F
RAPID CITY     FAIR      49  29  46 S12       29.91F
$$

  *****  SOME WEATHER IN NEARBY STATES *****

CITY           SKY/WX    TMP DP  RH WIND       PRES   REMARKS
GLASGOW MT     FAIR      44  35  70 SE10      29.68F
GREAT FALLS MT FAIR      61  20  20 SW18G29   29.69F
CHEYENNE WY    FAIR      36  22  56 W8        30.12F
SCOTTSBLUFF NE FAIR      43  32  65 E10       30.05F
OMAHA NE       FAIR      47  43  86 N9        30.05S
DES MOINES IA  FAIR      52  48  86 N5        30.06S
DAVENPORT IA   FAIR      50  45  83 NW5       30.08R
CHICAGO IL     FAIR      56  46  69 SW8       30.04R
EAU CLAIRE WI  FAIR      40  30  67 CALM      30.02R
LA CROSSE WI   FAIR      46  38  73 SE3       30.05S
$$

  *****  SOME NATIONAL WEATHER *****

CITY           SKY/WX    TMP DP  RH WIND       PRES   REMARKS
LA GUARDIA NY  FAIR      59  46  62 SW5       30.25S
RALEIGH NC     FAIR      43  43 100 CALM      30.29F
ATLANTA GA     FAIR      52  43  71 NE9       30.27S
NEW ORLEANS LA FAIR      60  60 100 CALM      30.13F
OKLAHOMA CITY  MOCLDY    53  45  74 S10       30.08S
ALBUQUERQUE NM CLOUDY    56  24  29 N12       30.14S
SALT LAKE CITY FAIR      45  31  58 E7        30.03F
LOS ANGELES CA FAIR      66  61  84 NE5       29.90F
BOISE ID       FAIR      52  29  41 SE13      29.85F
SEATTLE WA     LGT RAIN  53  51  93 S12G20    29.63S
$$

*** WEATHER ACROSS MANITOBA...SASKATCHEWAN AND ONTARIO ***
                ***ONTARIO***

CITY           SKY/WX    TMP DP  RH WIND       PRES   REMARKS
GERALDTON      PTCLDY    45  19  36 SW15      29.53R
THUNDER BAY    CLEAR     48  18  29 W12G20    29.70R
SIOUX LOOKOUT  PTCLDY    46  27  46 W15G24    29.65R
TORONTO        CLEAR     55  46  71 SW10      30.03S
BIG TROUT LK   LGT RAIN  36  36 100 W24G37    29.27R
PICKLE LAKE    NOT AVBL
DRYDEN         CLEAR     45  19  36 W20G26    29.69R
KENORA         CLEAR     43  16  33 W12       29.75R
$$
                *** MANITOBA***

CITY           SKY/WX    TMP DP  RH WIND       PRES   REMARKS
BRANDON        CLEAR     30  19  64 SW6       29.81F WCI  24
DAUPHIN        CLEAR     39  18  41 W10       29.77R
ISLAND LAKE    LGT RAIN  36  32  87 NW17G29   29.54R
PILOT MOUND      N/A     32  18  55 S5          N/A
THE PAS        PTCLDY    34  27  75 NW8       29.71R
THOMPSON       MOCLDY    32  30  93 NW9       29.61R WCI  24
WINNIPEG       CLEAR     41  19  42 W13       29.81R
LYNN LAKE      CLOUDY    28  27  93 N5        29.68R WCI  23
CHURCHILL      LGT RAIN  36  32  87 NE30G38   29.55R
GILLAM         FLURRIES  34  32  93 N20G28    29.47R WCI  22
$$
                ***SASKATCHEWAN***

CITY           SKY/WX    TMP DP  RH WIND       PRES   REMARKS
ESTEVAN        CLEAR     34  25  69 SE9       29.72F
KINDERSLEY     CLOUDY    54  39  58 SW12      29.41F
LLOYDMINSTER   CLEAR     36  21  55 SE16G22   29.35F
PRINCE ALBERT  CLOUDY    32  23  69 E12       29.60F WCI  23
REGINA         MOCLDY    36  19  51 SE13      29.63F
YORKTON        CLOUDY    34  19  55 S10       29.71F
N. BATTLEFORD  CLEAR     39  19  45 SE18G24   29.44F
LA RONGE       MOCLDY    32  28  86 E9        29.61F WCI  24
SASKATOON      CLOUDY    41  21  45 SE15G21   29.51F
SWIFT CURRENT  MOCLDY    55  37  50 SW25G31   29.53S
$$
NOTE: THESE ARE AUTOMATED STATIONS WITH LIMITED QUALITY CONTROL
      "FAIR" INDICATES FEW OR NO CLOUDS BELOW 12,000 FEET WITH NO
      SIGNIFICANT WEATHER AND/OR OBSTRUCTIONS TO VISIBILITY.
      SKY/WX - SKY CONDITION AND SIGNIFICANT WEATHER.
      TMP - AIR TEMPERATURE.    DP   - DEWPOINT TEMPERATURE.
      RH  - RELATIVE HUMIDITY.  PRES - PRESSURE.
      HX  - HEAT INDEX.         WCI  - WIND CHILL INDEX.
$




USA.gov is the U.S. government's official web portal to all federal, state and local government web resources and services.